| time (UTC) | temp F | wind direction | speed knots | gust knots | rain 1hr in | rain 24hr in | rain mn in | humidity % | barometer mb |
| 20260505022524 | 80 | 40 | 0.0 | 0.0 | 0.00 | 0.00 | 0.00 | 80 | 1018.2 |
| 20260505022021 | 80 | 67 | 1.7 | 2.6 | 0.00 | 0.00 | 0.00 | 80 | 1018.1 |
| 20260505021518 | 79 | 113 | 0.9 | 1.7 | 0.00 | 0.00 | 0.00 | 80 | 1018.0 |
| 20260505021009 | 80 | 102 | 1.7 | 1.7 | 0.00 | 0.00 | 0.00 | 79 | 1018.0 |
| 20260505020508 | 80 | 64 | 0.9 | 1.7 | 0.00 | 0.00 | 0.00 | 79 | 1017.9 |
| 20260505020006 | 80 | 38 | 1.7 | 2.6 | 0.00 | 0.00 | 0.00 | 79 | 1017.9 |
| 20260505015503 | 80 | 128 | 1.7 | 1.7 | 0.00 | 0.00 | 0.00 | 79 | 1017.9 |
| 20260505015000 | 80 | 120 | 2.6 | 2.6 | 0.00 | 0.00 | 0.00 | 79 | 1018.0 |
| 20260505014457 | 80 | 100 | 0.9 | 2.6 | 0.00 | 0.00 | 0.00 | 78 | 1017.8 |
| 20260505013954 | 80 | 31 | 0.0 | 1.7 | 0.00 | 0.00 | 0.00 | 78 | 1017.9 |
| 20260505013451 | 80 | 142 | 0.0 | 0.9 | 0.00 | 0.00 | 0.00 | 77 | 1017.9 |
| 20260505012948 | 80 | 106 | 0.9 | 2.6 | 0.00 | 0.00 | 0.00 | 77 | 1017.8 |
| 20260505012446 | 80 | 77 | 1.7 | 3.5 | 0.00 | 0.00 | 0.00 | 77 | 1017.7 |
| 20260505011943 | 80 | 95 | 1.7 | 2.6 | 0.00 | 0.00 | 0.00 | 76 | 1017.5 |
| 20260505011438 | 81 | 55 | 0.0 | 1.7 | 0.00 | 0.00 | 0.00 | 76 | 1017.5 |
| 20260505010936 | 81 | 43 | 0.0 | 0.9 | 0.00 | 0.00 | 0.00 | 76 | 1017.3 |
| 20260505010431 | 81 | 99 | 0.9 | 1.7 | 0.00 | 0.00 | 0.00 | 75 | 1017.4 |
| 20260505005928 | 81 | 59 | 2.6 | 2.6 | 0.00 | 0.00 | 0.00 | 75 | 1017.5 |
| 20260505005425 | 81 | 77 | 0.9 | 2.6 | 0.00 | 0.00 | 0.00 | 75 | 1017.3 |
| 20260505004922 | 81 | 38 | 0.0 | 2.6 | 0.00 | 0.00 | 0.00 | 74 | 1017.1 |
| 20260505004419 | 81 | 57 | 1.7 | 2.6 | 0.00 | 0.00 | 0.00 | 74 | 1017.2 |
| 20260505003915 | 81 | 336 | 0.0 | 2.6 | 0.00 | 0.00 | 0.00 | 74 | 1017.1 |
| 20260505003413 | 81 | 57 | 0.0 | 2.6 | 0.00 | 0.00 | 0.00 | 74 | 1017.0 |
| 20260505002909 | 82 | 47 | 0.9 | 1.7 | 0.00 | 0.00 | 0.00 | 74 | 1017.0 |
| 20260505002405 | 82 | 61 | 0.9 | 0.9 | 0.00 | 0.00 | 0.00 | 73 | 1017.0 |
| 20260505001904 | 82 | 49 | 0.9 | 1.7 | 0.00 | 0.00 | 0.00 | 73 | 1017.0 |
| 20260505001401 | 82 | 17 | 0.0 | 2.6 | 0.00 | 0.00 | 0.00 | 73 | 1017.0 |
| 20260505000858 | 82 | 51 | 1.7 | 2.6 | 0.00 | 0.00 | 0.00 | 73 | 1017.0 |
| 20260505000355 | 82 | 32 | 0.0 | 0.0 | 0.00 | 0.00 | 0.00 | 73 | 1017.0 |
| 20260504235852 | 82 | 58 | 0.9 | 2.6 | 0.00 | 0.00 | 0.00 | 73 | 1016.8 |
| 20260504235349 | 82 | 138 | 1.7 | 1.7 | 0.00 | 0.00 | 0.00 | 73 | 1016.7 |
| 20260504234845 | 82 | 32 | 0.0 | 1.7 | 0.00 | 0.00 | 0.00 | 73 | 1016.7 |
| 20260504234343 | 82 | 26 | 0.0 | 3.5 | 0.00 | 0.00 | 0.00 | 72 | 1016.8 |
| 20260504233840 | 82 | 48 | 1.7 | 3.5 | 0.00 | 0.00 | 0.00 | 72 | 1016.6 |
| 20260504233335 | 83 | 49 | 1.7 | 2.6 | 0.00 | 0.00 | 0.00 | 72 | 1016.6 |
| 20260504232832 | 83 | 50 | 0.9 | 3.5 | 0.00 | 0.00 | 0.00 | 72 | 1016.8 |
| 20260504232329 | 83 | 48 | 2.6 | 2.6 | 0.00 | 0.00 | 0.00 | 71 | 1016.6 |
| 20260504231826 | 83 | 111 | 1.7 | 2.6 | 0.00 | 0.00 | 0.00 | 70 | 1016.8 |
| 20260504231323 | 83 | 36 | 1.7 | 2.6 | 0.00 | 0.00 | 0.00 | 69 | 1016.6 |
| 20260504230819 | 83 | 60 | 0.0 | 1.7 | 0.00 | 0.00 | 0.00 | 69 | 1016.5 |
| 20260504230317 | 83 | 17 | 0.9 | 1.7 | 0.00 | 0.00 | 0.00 | 69 | 1016.5 |
| 20260504225816 | 83 | 42 | 0.0 | 1.7 | 0.00 | 0.00 | 0.00 | 69 | 1016.3 |
| 20260504225311 | 84 | 40 | 2.6 | 2.6 | 0.00 | 0.00 | 0.00 | 68 | 1016.1 |
| 20260504224809 | 84 | 337 | 0.0 | 2.6 | 0.00 | 0.00 | 0.00 | 68 | 1016.3 |
| 20260504224306 | 84 | 34 | 2.6 | 3.5 | 0.00 | 0.00 | 0.00 | 68 | 1016.2 |
| 20260504223802 | 84 | 43 | 2.6 | 2.6 | 0.00 | 0.00 | 0.00 | 68 | 1015.9 |
| 20260504223258 | 84 | 45 | 0.0 | 0.9 | 0.00 | 0.00 | 0.00 | 67 | 1016.1 |
| 20260504222755 | 85 | 166 | 0.9 | 5.2 | 0.00 | 0.00 | 0.00 | 66 | 1016.1 |
| 20260504222251 | 85 | 47 | 0.9 | 2.6 | 0.00 | 0.00 | 0.00 | 67 | 1015.7 |
| 20260504221749 | 85 | 47 | 0.9 | 2.6 | 0.00 | 0.00 | 0.00 | 66 | 1015.7 |
| 20260504221246 | 85 | 48 | 2.6 | 5.2 | 0.00 | 0.00 | 0.00 | 66 | 1015.5 |
| 20260504220743 | 85 | 48 | 0.0 | 0.9 | 0.00 | 0.00 | 0.00 | 65 | 1015.4 |
| 20260504220240 | 86 | 58 | 1.7 | 6.1 | 0.00 | 0.00 | 0.00 | 64 | 1015.5 |
| 20260504215737 | 86 | 106 | 1.7 | 7.0 | 0.00 | 0.00 | 0.00 | 64 | 1015.4 |
| 20260504215234 | 86 | 56 | 0.9 | 2.6 | 0.00 | 0.00 | 0.00 | 63 | 1015.5 |
| 20260504214730 | 86 | 185 | 0.9 | 5.2 | 0.00 | 0.00 | 0.00 | 63 | 1015.2 |
| 20260504214226 | 86 | 122 | 2.6 | 5.2 | 0.00 | 0.00 | 0.00 | 63 | 1015.2 |
| 20260504213723 | 86 | 87 | 3.5 | 5.2 | 0.00 | 0.00 | 0.00 | 63 | 1015.1 |
| 20260504213219 | 87 | 78 | 0.0 | 5.2 | 0.00 | 0.00 | 0.00 | 61 | 1015.2 |
| 20260504212717 | 89 | 258 | 1.7 | 2.6 | 0.00 | 0.00 | 0.00 | 59 | 1015.0 |
| 20260504212214 | 89 | 120 | 0.9 | 3.5 | 0.00 | 0.00 | 0.00 | 59 | 1014.9 |
| 20260504211711 | 88 | 14 | 0.9 | 3.5 | 0.00 | 0.00 | 0.00 | 61 | 1015.0 |
| 20260504211207 | 88 | 51 | 0.9 | 3.5 | 0.00 | 0.00 | 0.00 | 61 | 1015.0 |
| 20260504210704 | 89 | 34 | 1.7 | 2.6 | 0.00 | 0.00 | 0.00 | 59 | 1014.9 |
| 20260504210201 | 88 | 205 | 1.7 | 3.5 | 0.00 | 0.00 | 0.00 | 60 | 1015.0 |
| 20260504205658 | 90 | 112 | 4.3 | 7.8 | 0.00 | 0.00 | 0.00 | 59 | 1015.0 |
| 20260504205155 | 90 | 187 | 0.0 | 3.5 | 0.00 | 0.00 | 0.00 | 58 | 1014.7 |
| 20260504204654 | 89 | 149 | 0.9 | 3.5 | 0.00 | 0.00 | 0.00 | 59 | 1014.9 |
| 20260504204153 | 90 | 317 | 0.0 | 8.7 | 0.00 | 0.00 | 0.00 | 59 | 1014.8 |
| 20260504203651 | 90 | 257 | 1.7 | 6.1 | 0.00 | 0.00 | 0.00 | 58 | 1014.7 |
| 20260504203149 | 90 | 53 | 0.9 | 6.1 | 0.00 | 0.00 | 0.00 | 59 | 1014.7 |
| 20260504202648 | 90 | 154 | 1.7 | 3.5 | 0.00 | 0.00 | 0.00 | 58 | 1014.6 |
| 20260504202146 | 91 | 229 | 1.7 | 2.6 | 0.00 | 0.00 | 0.00 | 57 | 1014.6 |
| 20260504201643 | 91 | 278 | 0.9 | 8.7 | 0.00 | 0.00 | 0.00 | 57 | 1014.7 |
| 20260504201140 | 91 | 30 | 1.7 | 5.2 | 0.00 | 0.00 | 0.00 | 56 | 1014.6 |
| 20260504200637 | 91 | 247 | 2.6 | 6.1 | 0.00 | 0.00 | 0.00 | 56 | 1014.6 |
| 20260504200134 | 91 | 66 | 3.5 | 7.8 | 0.00 | 0.00 | 0.00 | 56 | 1014.6 |
| 20260504195630 | 90 | 177 | 2.6 | 3.5 | 0.00 | 0.00 | 0.00 | 57 | 1014.7 |
| 20260504195126 | 91 | 75 | 4.3 | 7.0 | 0.00 | 0.00 | 0.00 | 56 | 1014.8 |
| 20260504194623 | 92 | 269 | 3.5 | 7.8 | 0.00 | 0.00 | 0.00 | 54 | 1014.8 |
| 20260504194119 | 91 | 168 | 2.6 | 6.1 | 0.00 | 0.00 | 0.00 | 54 | 1015.0 |
| 20260504193615 | 91 | 151 | 1.7 | 7.0 | 0.00 | 0.00 | 0.00 | 54 | 1015.0 |
| 20260504193114 | 89 | 172 | 1.7 | 3.5 | 0.00 | 0.00 | 0.00 | 56 | 1014.7 |
| 20260504192612 | 90 | 89 | 4.3 | 8.7 | 0.00 | 0.00 | 0.00 | 56 | 1014.9 |
| 20260504192110 | 92 | 172 | 1.7 | 7.8 | 0.00 | 0.00 | 0.00 | 53 | 1015.0 |
| 20260504191608 | 93 | 192 | 2.6 | 6.1 | 0.00 | 0.00 | 0.00 | 51 | 1015.0 |
| 20260504191104 | 92 | 286 | 2.6 | 2.6 | 0.00 | 0.00 | 0.00 | 49 | 1014.9 |
| 20260504190600 | 92 | 209 | 2.6 | 5.2 | 0.00 | 0.00 | 0.00 | 49 | 1015.0 |
| 20260504190056 | 92 | 154 | 1.7 | 13.9 | 0.00 | 0.00 | 0.00 | 50 | 1014.8 |
| 20260504185553 | 92 | 80 | 4.3 | 6.1 | 0.00 | 0.00 | 0.00 | 50 | 1015.0 |
| 20260504185050 | 92 | 80 | 1.7 | 2.6 | 0.00 | 0.00 | 0.00 | 49 | 1015.1 |
| 20260504184545 | 92 | 310 | 1.7 | 5.2 | 0.00 | 0.00 | 0.00 | 49 | 1015.3 |
| 20260504184041 | 92 | 211 | 0.9 | 7.8 | 0.00 | 0.00 | 0.00 | 49 | 1015.3 |
| 20260504183538 | 92 | 279 | 0.0 | 6.1 | 0.00 | 0.00 | 0.00 | 49 | 1015.5 |
| 20260504183036 | 92 | 201 | 3.5 | 7.0 | 0.00 | 0.00 | 0.00 | 49 | 1015.5 |
| 20260504182532 | 91 | 231 | 4.3 | 6.1 | 0.00 | 0.00 | 0.00 | 50 | 1015.4 |
| 20260504182030 | 91 | 230 | 1.7 | 6.1 | 0.00 | 0.00 | 0.00 | 51 | 1015.5 |
| 20260504181527 | 91 | 181 | 3.5 | 7.8 | 0.00 | 0.00 | 0.00 | 51 | 1015.4 |
| 20260504181025 | 91 | 195 | 3.5 | 6.1 | 0.00 | 0.00 | 0.00 | 51 | 1015.7 |
| 20260504180524 | 91 | 150 | 3.5 | 7.0 | 0.00 | 0.00 | 0.00 | 50 | 1015.7 |
| 20260504180022 | 91 | 202 | 5.2 | 8.7 | 0.00 | 0.00 | 0.00 | 50 | 1015.7 |
| 20260504175519 | 91 | 208 | 1.7 | 5.2 | 0.00 | 0.00 | 0.00 | 52 | 1015.8 |
| 20260504175016 | 91 | 209 | 5.2 | 7.0 | 0.00 | 0.00 | 0.00 | 51 | 1015.7 |
| 20260504174514 | 92 | 183 | 0.9 | 7.8 | 0.00 | 0.00 | 0.00 | 49 | 1015.8 |
| 20260504174011 | 92 | 227 | 0.9 | 6.1 | 0.00 | 0.00 | 0.00 | 49 | 1016.0 |
| 20260504173507 | 91 | 117 | 3.5 | 9.6 | 0.00 | 0.00 | 0.00 | 49 | 1015.9 |
| 20260504173005 | 92 | 78 | 2.6 | 8.7 | 0.00 | 0.00 | 0.00 | 48 | 1016.0 |
| 20260504172501 | 92 | 216 | 1.7 | 5.2 | 0.00 | 0.00 | 0.00 | 48 | 1016.1 |
| 20260504171957 | 92 | 311 | 2.6 | 7.0 | 0.00 | 0.00 | 0.00 | 48 | 1016.0 |
| 20260504171454 | 91 | 222 | 1.7 | 5.2 | 0.00 | 0.00 | 0.00 | 50 | 1016.3 |
| 20260504170951 | 91 | 196 | 3.5 | 7.8 | 0.00 | 0.00 | 0.00 | 47 | 1016.3 |
| 20260504170447 | 91 | 202 | 6.1 | 7.8 | 0.00 | 0.00 | 0.00 | 48 | 1016.5 |
| 20260504160407 | 89 | 194 | 1.7 | 7.0 | 0.00 | 0.00 | 0.00 | 52 | 1017.2 |
| 20260504150831 | 88 | 158 | 1.7 | 5.2 | 0.00 | 0.00 | 0.00 | 58 | 1017.6 |
| 20260504150328 | 88 | 232 | 3.5 | 7.0 | 0.00 | 0.00 | 0.00 | 58 | 1017.6 |
| 20260504141258 | 86 | 198 | 0.9 | 11.3 | 0.00 | 0.00 | 0.00 | 65 | 1017.4 |
| 20260504140754 | 86 | 207 | 1.7 | 7.0 | 0.00 | 0.00 | 0.00 | 65 | 1017.6 |
| 20260504140250 | 86 | 200 | 4.3 | 5.2 | 0.00 | 0.00 | 0.00 | 65 | 1017.5 |
| 20260504130719 | 84 | 43 | 2.6 | 5.2 | 0.00 | 0.00 | 0.00 | 70 | 1017.8 |
| 20260504130214 | 84 | 258 | 1.7 | 7.0 | 0.00 | 0.00 | 0.00 | 70 | 1017.6 |
| 20260504120139 | 82 | 131 | 0.9 | 5.2 | 0.00 | 0.00 | 0.00 | 73 | 1018.1 |
| 20260504110606 | 78 | 99 | 0.0 | 0.0 | 0.00 | 0.00 | 0.00 | 84 | 1017.7 |
| 20260504100533 | 75 | 69 | 0.0 | 0.9 | 0.00 | 0.00 | 0.00 | 91 | 1017.4 |
| 20260504081927 | 76 | 83 | 0.0 | 0.0 | 0.00 | 0.00 | 0.00 | 89 | 1016.5 |
| 20260504081424 | 76 | 127 | 0.9 | 0.9 | 0.00 | 0.00 | 0.00 | 89 | 1016.5 |
| 20260504080920 | 76 | 122 | 0.0 | 0.9 | 0.00 | 0.00 | 0.00 | 89 | 1016.8 |
| 20260504080417 | 76 | 121 | 0.0 | 0.0 | 0.00 | 0.00 | 0.00 | 89 | 1016.8 |
| 20260504070344 | 76 | 55 | 0.0 | 0.0 | 0.00 | 0.00 | 0.00 | 88 | 1016.5 |
| 20260504050732 | 78 | 102 | 0.0 | 1.7 | 0.00 | 0.00 | 0.00 | 84 | 1017.5 |
| 20260504050229 | 78 | 125 | 0.9 | 1.7 | 0.00 | 0.00 | 0.00 | 84 | 1017.7 |
| 20260504045726 | 78 | 75 | 0.0 | 0.9 | 0.00 | 0.00 | 0.00 | 84 | 1017.6 |
| 20260504045221 | 78 | 139 | 0.9 | 1.7 | 0.00 | 0.00 | 0.00 | 84 | 1017.8 |
| 20260504044719 | 78 | 121 | 0.0 | 0.9 | 0.00 | 0.00 | 0.00 | 83 | 1017.9 |
| 20260504044216 | 78 | 122 | 0.0 | 0.9 | 0.00 | 0.00 | 0.00 | 83 | 1017.9 |
| 20260504043713 | 78 | 76 | 0.0 | 0.9 | 0.00 | 0.00 | 0.00 | 83 | 1018.0 |
| 20260504043210 | 78 | 141 | 0.0 | 0.9 | 0.00 | 0.00 | 0.00 | 83 | 1018.1 |
| 20260504042708 | 78 | 57 | 0.0 | 0.0 | 0.00 | 0.00 | 0.00 | 83 | 1018.0 |
| 20260504042204 | 78 | 72 | 0.0 | 0.9 | 0.00 | 0.00 | 0.00 | 83 | 1018.0 |
| 20260504041659 | 78 | 108 | 0.0 | 0.9 | 0.00 | 0.00 | 0.00 | 82 | 1018.2 |
| 20260504041155 | 78 | 90 | 0.0 | 0.9 | 0.00 | 0.00 | 0.00 | 82 | 1018.1 |
| 20260504040653 | 79 | 152 | 0.0 | 0.9 | 0.00 | 0.00 | 0.00 | 82 | 1018.4 |
| 20260504040150 | 78 | 121 | 0.0 | 0.9 | 0.00 | 0.00 | 0.00 | 82 | 1018.2 |
| 20260504035646 | 79 | 108 | 0.0 | 0.9 | 0.00 | 0.00 | 0.00 | 82 | 1018.6 |
| 20260504035143 | 79 | 134 | 0.0 | 1.7 | 0.00 | 0.00 | 0.00 | 82 | 1018.5 |
| 20260504034641 | 78 | 81 | 0.0 | 1.7 | 0.00 | 0.00 | 0.00 | 82 | 1018.4 |
| 20260504034138 | 78 | 86 | 0.9 | 1.7 | 0.00 | 0.00 | 0.00 | 82 | 1018.7 |
| 20260504033635 | 78 | 138 | 0.0 | 0.9 | 0.00 | 0.00 | 0.00 | 82 | 1018.7 |
| 20260504033132 | 78 | 116 | 0.0 | 0.0 | 0.00 | 0.00 | 0.00 | 82 | 1018.7 |
| 20260504032629 | 78 | 183 | 0.0 | 0.9 | 0.00 | 0.00 | 0.00 | 82 | 1018.5 |
| 20260504032126 | 78 | 122 | 0.0 | 0.9 | 0.00 | 0.00 | 0.00 | 82 | 1018.6 |
| 20260504031623 | 78 | 131 | 0.0 | 2.6 | 0.00 | 0.00 | 0.00 | 82 | 1018.6 |
| 20260504031119 | 78 | 125 | 0.0 | 0.9 | 0.00 | 0.00 | 0.00 | 82 | 1018.5 |
| 20260504030616 | 78 | 126 | 0.0 | 0.9 | 0.00 | 0.00 | 0.00 | 82 | 1018.6 |
| 20260504030113 | 78 | 52 | 0.0 | 0.0 | 0.00 | 0.00 | 0.00 | 82 | 1018.5 |
| 20260504025610 | 78 | 52 | 0.0 | 0.0 | 0.00 | 0.00 | 0.00 | 81 | 1018.5 |
| 20260504025107 | 78 | 47 | 0.0 | 0.0 | 0.00 | 0.00 | 0.00 | 81 | 1018.4 |
| 20260504024604 | 78 | 58 | 0.0 | 0.0 | 0.00 | 0.00 | 0.00 | 80 | 1018.5 |
| 20260504024101 | 79 | 63 | 0.0 | 0.0 | 0.00 | 0.00 | 0.00 | 79 | 1018.3 |
| 20260504023557 | 78 | 65 | 0.0 | 0.0 | 0.00 | 0.00 | 0.00 | 80 | 1018.4 |
| 20260504023053 | 78 | 97 | 0.0 | 0.0 | 0.00 | 0.00 | 0.00 | 79 | 1018.4 |